Time,TemperatureF,DewpointF,PressureIn,WindDirection,WindDirectionDegrees,WindSpeedMPH,WindSpeedGustMPH,Humidity,HourlyPrecipIn,Conditions,Clouds,dailyrainin,SolarRadiationWatts/m^2,SoftwareType,DateUTC
2013-01-01 00:02:00,39.0,33.0,-100.00,WSW,240,0.0,0.0,80,0.00,,,0.00,0.000000,,2013-01-01 08:02:00,
2013-01-01 00:11:00,39.0,33.0,-100.00,WSW,240,0.0,0.0,80,0.00,,,0.00,0.000000,,2013-01-01 08:11:00,
2013-01-01 00:21:00,39.0,33.0,-100.00,WSW,240,0.0,0.0,80,0.00,,,0.00,0.000000,,2013-01-01 08:21:00,
2013-01-01 00:53:00,39.0,34.0,-100.00,SSW,199,0.0,0.0,82,0.00,,,0.00,0.000000,,2013-01-01 08:53:00,
2013-01-01 01:02:00,39.0,34.0,-100.00,SSW,199,0.0,0.0,82,0.00,,,0.00,0.000000,,2013-01-01 09:02:00,
2013-01-01 01:11:00,39.0,34.0,-100.00,SSW,199,0.0,0.0,82,0.00,,,0.00,0.000000,,2013-01-01 09:11:00,
2013-01-01 01:22:00,39.0,34.0,-100.00,SSW,199,0.0,0.0,82,0.00,,,0.00,0.000000,,2013-01-01 09:22:00,
2013-01-01 01:52:00,39.0,35.0,-100.00,West,276,0.0,0.0,86,0.00,,,0.00,0.000000,,2013-01-01 09:52:00,
2013-01-01 02:02:00,39.0,35.0,-100.00,West,276,0.0,0.0,86,0.00,,,0.00,0.000000,,2013-01-01 10:02:00,
2013-01-01 02:12:00,39.0,35.0,-100.00,West,276,0.0,0.0,86,0.00,,,0.00,0.000000,,2013-01-01 10:12:00,
2013-01-01 02:22:00,39.0,35.0,-100.00,West,276,0.0,0.0,86,0.00,,,0.00,0.000000,,2013-01-01 10:22:00,
2013-01-01 02:52:00,39.0,35.0,-100.00,SW,221,0.0,0.0,85,0.00,,,0.00,0.000000,,2013-01-01 10:52:00,
2013-01-01 03:02:00,39.0,35.0,-100.00,SW,221,0.0,0.0,85,0.00,,,0.00,0.000000,,2013-01-01 11:02:00,
2013-01-01 03:12:00,39.0,35.0,-100.00,SW,221,0.0,0.0,85,0.00,,,0.00,0.000000,,2013-01-01 11:12:00,
2013-01-01 03:22:00,39.0,35.0,-100.00,SW,221,0.0,0.0,85,0.00,,,0.00,0.000000,,2013-01-01 11:22:00,
2013-01-01 03:53:00,39.0,37.0,-100.00,NW,310,0.0,0.0,91,0.00,,,-99.99,0.000000,,2013-01-01 11:53:00,
2013-01-01 04:02:00,39.0,37.0,-100.00,NW,310,0.0,0.0,91,0.00,,,-99.99,0.000000,,2013-01-01 12:02:00,
2013-01-01 04:12:00,39.0,37.0,-100.00,NW,310,0.0,0.0,91,0.00,,,-99.99,0.000000,,2013-01-01 12:12:00,
2013-01-01 04:22:00,39.0,37.0,-100.00,NW,310,0.0,0.0,91,0.00,,,-99.99,0.000000,,2013-01-01 12:22:00,
2013-01-01 04:53:00,33.0,30.0,-100.00,NE,54,0.0,0.0,88,0.00,,,0.00,0.000000,,2013-01-01 12:53:00,
2013-01-01 05:02:00,33.0,30.0,-100.00,NE,54,0.0,0.0,88,0.00,,,0.00,0.000000,,2013-01-01 13:02:00,
2013-01-01 05:12:00,33.0,30.0,-100.00,NE,54,0.0,0.0,88,0.00,,,0.00,0.000000,,2013-01-01 13:12:00,
2013-01-01 05:22:00,33.0,30.0,-100.00,NE,54,0.0,0.0,88,0.00,,,0.00,0.000000,,2013-01-01 13:22:00,
2013-01-01 05:52:00,35.0,30.0,-100.00,ENE,74,0.0,0.0,83,0.00,,,0.00,0.000000,,2013-01-01 13:52:00,
2013-01-01 06:02:00,35.0,30.0,-100.00,ENE,74,0.0,0.0,83,0.00,,,0.00,0.000000,,2013-01-01 14:02:00,
2013-01-01 06:12:00,35.0,30.0,-100.00,ENE,74,0.0,0.0,83,0.00,,,0.00,0.000000,,2013-01-01 14:12:00,
2013-01-01 06:22:00,35.0,30.0,-100.00,ENE,74,0.0,0.0,83,0.00,,,0.00,0.000000,,2013-01-01 14:22:00,
2013-01-01 06:53:00,33.0,30.0,-100.00,ENE,60,0.0,0.0,89,0.00,,,0.00,0.000000,,2013-01-01 14:53:00,
2013-01-01 07:02:00,33.0,30.0,-100.00,ENE,60,0.0,0.0,89,0.00,,,0.00,0.000000,,2013-01-01 15:02:00,
2013-01-01 07:12:00,33.0,30.0,-100.00,ENE,60,0.0,0.0,89,0.00,,,0.00,0.000000,,2013-01-01 15:12:00,
2013-01-01 07:22:00,33.0,30.0,-100.00,ENE,60,0.0,0.0,89,0.00,,,0.00,0.000000,,2013-01-01 15:22:00,
2013-01-01 07:53:00,32.0,32.0,-100.00,NE,48,0.0,0.0,99,0.00,,,0.00,0.000000,,2013-01-01 15:53:00,
2013-01-01 08:02:00,32.0,32.0,-100.00,NE,48,0.0,0.0,99,0.00,,,0.00,0.000000,,2013-01-01 16:02:00,
2013-01-01 08:12:00,32.0,32.0,-100.00,NE,48,0.0,0.0,99,0.00,,,0.00,0.000000,,2013-01-01 16:12:00,
2013-01-01 08:22:00,32.0,32.0,-100.00,NE,48,0.0,0.0,99,0.00,,,0.00,0.000000,,2013-01-01 16:22:00,
2013-01-01 08:53:00,33.0,33.0,-100.00,ENE,66,0.0,0.0,100,0.00,,,0.00,21.000000,,2013-01-01 16:53:00,
2013-01-01 09:02:00,33.0,33.0,-100.00,ENE,66,0.0,0.0,100,0.00,,,0.00,21.000000,,2013-01-01 17:02:00,
2013-01-01 09:12:00,33.0,33.0,-100.00,ENE,66,0.0,0.0,100,0.00,,,0.00,21.000000,,2013-01-01 17:12:00,
2013-01-01 09:22:00,33.0,33.0,-100.00,ENE,66,0.0,0.0,100,0.00,,,0.00,21.000000,,2013-01-01 17:22:00,
2013-01-01 09:53:00,36.0,32.0,-100.00,ENE,75,0.0,0.0,86,0.00,,,0.00,179.000000,,2013-01-01 17:53:00,
2013-01-01 10:03:00,36.0,32.0,-100.00,ENE,75,0.0,0.0,86,0.00,,,0.00,179.000000,,2013-01-01 18:03:00,
2013-01-01 10:12:00,36.0,32.0,-100.00,ENE,75,0.0,0.0,86,0.00,,,0.00,179.000000,,2013-01-01 18:12:00,
2013-01-01 10:22:00,36.0,32.0,-100.00,ENE,75,0.0,0.0,86,0.00,,,0.00,179.000000,,2013-01-01 18:22:00,
2013-01-01 10:53:00,38.0,32.0,-100.00,ENE,68,0.0,0.0,78,0.00,,,0.00,332.000000,,2013-01-01 18:53:00,
2013-01-01 11:02:00,38.0,32.0,-100.00,ENE,68,0.0,0.0,78,0.00,,,0.00,332.000000,,2013-01-01 19:02:00,
2013-01-01 11:12:00,38.0,32.0,-100.00,ENE,68,0.0,0.0,78,0.00,,,0.00,332.000000,,2013-01-01 19:12:00,
2013-01-01 11:22:00,38.0,32.0,-100.00,ENE,68,0.0,0.0,78,0.00,,,0.00,332.000000,,2013-01-01 19:22:00,
2013-01-01 11:52:00,40.0,33.0,-100.00,NE,49,0.0,0.0,77,0.00,,,0.00,428.000000,,2013-01-01 19:52:00,
2013-01-01 12:02:00,40.0,33.0,-100.00,NE,49,0.0,0.0,77,0.00,,,0.00,428.000000,,2013-01-01 20:02:00,
2013-01-01 12:12:00,40.0,33.0,-100.00,NE,49,0.0,0.0,77,0.00,,,0.00,428.000000,,2013-01-01 20:12:00,
2013-01-01 12:22:00,40.0,33.0,-100.00,NE,49,0.0,0.0,77,0.00,,,0.00,428.000000,,2013-01-01 20:22:00,
2013-01-01 12:53:00,40.0,32.0,-100.00,ENE,60,0.0,0.0,74,0.00,,,0.00,437.000000,,2013-01-01 20:53:00,
2013-01-01 13:03:00,40.0,32.0,-100.00,ENE,60,0.0,0.0,74,0.00,,,0.00,437.000000,,2013-01-01 21:03:00,
2013-01-01 13:12:00,40.0,32.0,-100.00,ENE,60,0.0,0.0,74,0.00,,,0.00,437.000000,,2013-01-01 21:12:00,
2013-01-01 13:22:00,40.0,32.0,-100.00,ENE,60,0.0,0.0,74,0.00,,,0.00,437.000000,,2013-01-01 21:22:00,
2013-01-01 13:53:00,42.0,33.0,-100.00,ENE,64,0.0,0.0,69,0.00,,,0.00,455.000000,,2013-01-01 21:53:00,
2013-01-01 14:02:00,42.0,33.0,-100.00,ENE,64,0.0,0.0,69,0.00,,,0.00,455.000000,,2013-01-01 22:02:00,
2013-01-01 14:12:00,42.0,33.0,-100.00,ENE,64,0.0,0.0,69,0.00,,,0.00,455.000000,,2013-01-01 22:12:00,
2013-01-01 14:22:00,42.0,33.0,-100.00,ENE,64,0.0,0.0,69,0.00,,,0.00,455.000000,,2013-01-01 22:22:00,
2013-01-01 14:52:00,43.0,32.0,-100.00,ENE,61,0.0,0.0,64,0.00,,,0.00,386.000000,,2013-01-01 22:52:00,
2013-01-01 15:02:00,43.0,32.0,-100.00,ENE,61,0.0,0.0,64,0.00,,,0.00,386.000000,,2013-01-01 23:02:00,
2013-01-01 15:12:00,43.0,32.0,-100.00,ENE,61,0.0,0.0,64,0.00,,,0.00,386.000000,,2013-01-01 23:12:00,
2013-01-01 15:22:00,43.0,32.0,-100.00,ENE,61,0.0,0.0,64,0.00,,,0.00,386.000000,,2013-01-01 23:22:00,
2013-01-01 15:52:00,43.0,31.0,-100.00,ENE,63,0.0,0.0,63,0.00,,,0.00,273.000000,,2013-01-01 23:52:00,
2013-01-01 16:02:00,43.0,31.0,-100.00,ENE,63,0.0,0.0,63,0.00,,,0.00,273.000000,,2013-01-02 00:02:00,
2013-01-01 16:12:00,43.0,31.0,-100.00,ENE,63,0.0,0.0,63,0.00,,,0.00,273.000000,,2013-01-02 00:12:00,
2013-01-01 16:22:00,43.0,31.0,-100.00,ENE,63,0.0,0.0,63,0.00,,,0.00,273.000000,,2013-01-02 00:22:00,
2013-01-01 16:52:00,41.0,31.0,-100.00,East,79,0.0,0.0,67,0.00,,,0.00,114.000000,,2013-01-02 00:52:00,
2013-01-01 17:02:00,41.0,31.0,-100.00,East,79,0.0,0.0,67,0.00,,,0.00,114.000000,,2013-01-02 01:02:00,
2013-01-01 17:12:00,41.0,31.0,-100.00,East,79,0.0,0.0,67,0.00,,,0.00,114.000000,,2013-01-02 01:12:00,
2013-01-01 17:22:00,41.0,31.0,-100.00,East,79,0.0,0.0,67,0.00,,,0.00,114.000000,,2013-01-02 01:22:00,
2013-01-01 17:52:00,41.0,27.0,-100.00,East,101,0.0,0.0,56,0.00,,,0.00,10.000000,,2013-01-02 01:52:00,
2013-01-01 18:02:00,41.0,27.0,-100.00,East,101,0.0,0.0,56,0.00,,,0.00,10.000000,,2013-01-02 02:02:00,
2013-01-01 18:12:00,41.0,27.0,-100.00,East,101,0.0,0.0,56,0.00,,,0.00,10.000000,,2013-01-02 02:12:00,
2013-01-01 18:22:00,41.0,27.0,-100.00,East,101,0.0,0.0,56,0.00,,,0.00,10.000000,,2013-01-02 02:22:00,
2013-01-01 18:53:00,41.0,27.0,-100.00,ESE,103,0.0,0.0,58,0.00,,,0.00,0.000000,,2013-01-02 02:53:00,
2013-01-01 19:02:00,41.0,27.0,-100.00,ESE,103,0.0,0.0,58,0.00,,,0.00,0.000000,,2013-01-02 03:02:00,
2013-01-01 19:11:00,41.0,27.0,-100.00,ESE,103,0.0,0.0,58,0.00,,,0.00,0.000000,,2013-01-02 03:11:00,
2013-01-01 19:22:00,41.0,27.0,-100.00,ESE,103,0.0,0.0,58,0.00,,,0.00,0.000000,,2013-01-02 03:22:00,
2013-01-01 19:53:00,40.0,28.0,-100.00,East,88,0.0,0.0,62,0.00,,,0.00,0.000000,,2013-01-02 03:53:00,
2013-01-01 20:02:00,40.0,28.0,-100.00,East,88,0.0,0.0,62,0.00,,,0.00,0.000000,,2013-01-02 04:02:00,
2013-01-01 20:12:00,40.0,28.0,-100.00,East,88,0.0,0.0,62,0.00,,,0.00,0.000000,,2013-01-02 04:12:00,
2013-01-01 20:22:00,40.0,28.0,-100.00,East,88,0.0,0.0,62,0.00,,,0.00,0.000000,,2013-01-02 04:22:00,
2013-01-01 20:52:00,44.0,20.0,-100.00,East,85,0.0,0.0,38,0.00,,,0.00,0.000000,,2013-01-02 04:52:00,
2013-01-01 21:53:00,43.0,20.0,-100.00,ENE,75,0.0,0.0,39,0.00,,,0.00,0.000000,,2013-01-02 05:53:00,
2013-01-01 22:53:00,43.0,22.0,-100.00,East,84,0.0,0.0,43,0.00,,,0.00,0.000000,,2013-01-02 06:53:00,
2013-01-01 23:02:00,43.0,22.0,-100.00,East,84,0.0,0.0,43,0.00,,,0.00,0.000000,,2013-01-02 07:02:00,
2013-01-01 23:12:00,43.0,22.0,-100.00,East,84,0.0,0.0,43,0.00,,,0.00,0.000000,,2013-01-02 07:12:00,
2013-01-01 23:22:00,43.0,22.0,-100.00,East,84,0.0,0.0,43,0.00,,,0.00,0.000000,,2013-01-02 07:22:00,
2013-01-01 23:52:00,42.0,23.0,-100.00,ENE,70,0.0,0.0,47,0.00,,,0.00,0.000000,,2013-01-02 07:52:00,